Roxboro, NC

6:57 PM EST on November 21, 2019 (GMT -0500)
Person County

Weather History for KTDF - October, 2019

Change the Weather History Date:

Sunday, October 20, 2019

  Actual Average Record
Temperature  
Mean Temperature 54 °F -  
Max Temperature 57 °F 67 °F 89 °F (2005)
Min Temperature 51 °F 42 °F 23 °F (1992)
Degree Days  
Heating Degree Days 11    
Growing Degree Days 4 (Base 50)    
Moisture  
Dew Point 53 °F    
Average Humidity 98    
Maximum Humidity 100    
Minimum Humidity 88    
Precipitation  
Precipitation 1.53 in - - ()
Sea Level Pressure  
Sea Level Pressure 29.84 in    
Wind  
Wind Speed 9 mph (North)    
Max Wind Speed 17 mph    
Max Gust Speed 24 mph    
Visibility 6 miles    
Events Rain    
Averages and records for this station are not official NWS values.
T = Trace of Precipitation, MM = Missing Value Source: NWS Daily Summary

Daily Weather History Graph

Daily Weather History Graph

Search for Another Location

Airport or City:

Astronomy

Oct. 20, 2019 Rise Set
Actual Time 7:27 AM EDT 6:33 PM EDT
Civil Twilight 7:01 AM EDT 6:59 PM EDT
Nautical Twilight 6:31 AM EDT 7:29 PM EDT
Astronomical Twilight 6:01 AM EDT 7:59 PM EDT
Moon 11:47 PM EDT (10/20) 1:46 PM EDT (10/20)
Length of Visible Light 11h 58m
Length of Day
11h 06m
Waning Gibbous, 59% of the Moon is Illuminated
Oct 20
Waning Gibbous
Oct 21
Last Quarter
Oct 27
New
Nov 4
First Quarter
Nov 12
Full

Hourly Weather History & Observations

Time (EDT) Temp. Dew Point Humidity Pressure Visibility Wind Dir Wind Speed Gust Speed Precip Events Conditions
12:15 AM 51.8 °F 50.0 °F 94% 29.97 in 5.0 mi ENE 5.8 mph - N/A   Heavy Drizzle
12:35 AM 51.8 °F 50.0 °F 94% 29.95 in 5.0 mi ENE 8.1 mph - 0.01 in   Heavy Drizzle
12:55 AM 51.8 °F 51.8 °F 100% 29.93 in 7.0 mi NE 10.4 mph - 0.04 in Rain Rain
1:15 AM 51.8 °F 51.8 °F 100% 29.92 in 5.0 mi ENE 10.4 mph - 0.03 in Rain Rain
1:35 AM 51.8 °F 51.8 °F 100% 29.91 in 7.0 mi ENE 9.2 mph - 0.07 in Rain Rain
1:55 AM 51.8 °F 51.8 °F 100% 29.90 in 5.0 mi ENE 10.4 mph - 0.10 in Rain Heavy Rain
2:15 AM 51.8 °F 51.8 °F 100% 29.89 in 5.0 mi NE 11.5 mph - 0.03 in Rain Heavy Rain
2:35 AM 51.8 °F 51.8 °F 100% 29.88 in 5.0 mi ENE 12.7 mph 17.3 mph 0.13 in Rain Rain
2:55 AM 51.8 °F 51.8 °F 100% 29.86 in 7.0 mi ENE 15.0 mph 18.4 mph 0.21 in Rain Rain
3:15 AM 51.8 °F 51.8 °F 100% 29.84 in 5.0 mi ENE 16.1 mph - 0.03 in Rain Rain
3:35 AM 53.6 °F 53.6 °F 100% 29.81 in 7.0 mi ENE 15.0 mph 20.7 mph 0.08 in Rain Rain
3:55 AM 53.6 °F 53.6 °F 100% 29.80 in 5.0 mi ENE 13.8 mph - 0.12 in Rain Heavy Rain
4:15 AM 53.6 °F 53.6 °F 100% 29.79 in 4.0 mi ENE 10.4 mph - 0.04 in Rain Heavy Rain
4:35 AM 53.6 °F 53.6 °F 100% 29.79 in 7.0 mi NE 6.9 mph - 0.08 in Rain Heavy Rain
4:55 AM 53.6 °F 53.6 °F 100% 29.77 in 7.0 mi ENE 11.5 mph - 0.15 in Rain Rain
5:15 AM 53.6 °F 53.6 °F 100% 29.77 in 7.0 mi ENE 9.2 mph - 0.04 in Rain Heavy Rain
5:35 AM 53.6 °F 53.6 °F 100% 29.76 in 7.0 mi NE 9.2 mph - 0.10 in Rain Heavy Rain
5:55 AM 53.6 °F 53.6 °F 100% 29.75 in 10.0 mi North 4.6 mph - 0.17 in Rain Light Rain
6:15 AM 53.6 °F 53.6 °F 100% 29.75 in 7.0 mi NNE 8.1 mph - 0.05 in Rain Heavy Rain
6:35 AM 53.6 °F 53.6 °F 100% 29.74 in 4.0 mi NNE 8.1 mph - 0.10 in Rain Heavy Rain
6:55 AM 53.6 °F 53.6 °F 100% 29.72 in 2.0 mi NE 17.3 mph 20.7 mph 0.16 in Rain Heavy Rain
7:15 AM 53.6 °F 53.6 °F 100% 29.72 in 4.0 mi NNE 6.9 mph - 0.08 in Rain Heavy Rain
7:35 AM 53.6 °F 53.6 °F 100% 29.74 in 7.0 mi NNW 4.6 mph - 0.19 in Rain Rain
7:55 AM 53.6 °F 53.6 °F 100% 29.74 in 10.0 mi NNW 4.6 mph - 0.29 in Rain Heavy Rain
8:15 AM 53.6 °F 53.6 °F 100% 29.73 in 7.0 mi North 6.9 mph - 0.07 in Rain Rain
8:35 AM 51.8 °F 51.8 °F 100% 29.74 in 5.0 mi NNW 9.2 mph - 0.14 in Rain Light Rain
8:55 AM 51.8 °F 51.8 °F 100% 29.74 in 3.0 mi NNW 8.1 mph - 0.20 in Rain Light Rain
9:15 AM 51.8 °F 51.8 °F 100% 29.74 in 3.0 mi NNW 10.4 mph - 0.04 in Rain Rain
9:35 AM 51.8 °F 51.8 °F 100% 29.74 in 3.0 mi North 8.1 mph - 0.07 in Rain Light Rain
9:55 AM 51.8 °F 51.8 °F 100% 29.75 in 2.0 mi NNW 12.7 mph 16.1 mph 0.08 in Rain Light Rain
10:15 AM 51.8 °F 51.8 °F 100% 29.75 in 2.5 mi NNW 5.8 mph 9.2 mph 0.01 in Rain Rain
10:35 AM 51.8 °F 51.8 °F 100% 29.75 in 2.5 mi NNW 9.2 mph - 0.01 in   Drizzle
10:55 AM 51.8 °F 51.8 °F 100% 29.75 in 2.5 mi North 12.7 mph 18.4 mph 0.01 in Rain Light Rain
11:15 AM 51.8 °F 51.8 °F 100% 29.76 in 2.5 mi North 9.2 mph 17.3 mph N/A   Light Drizzle
11:35 AM 51.8 °F 51.8 °F 100% 29.76 in 4.0 mi North 9.2 mph - N/A   Overcast
11:55 AM 51.8 °F 51.8 °F 100% 29.76 in 5.0 mi North 10.4 mph - N/A   Overcast
12:15 PM 51.8 °F 51.8 °F 100% 29.77 in 7.0 mi NNW 11.5 mph 16.1 mph N/A   Overcast
12:35 PM 51.8 °F 51.8 °F 100% 29.78 in 4.0 mi NNW 5.8 mph - N/A   Overcast
12:55 PM 51.8 °F 51.8 °F 100% 29.78 in 2.5 mi NNW 8.1 mph - N/A   Overcast
1:15 PM 51.8 °F 51.8 °F 100% 29.77 in 2.0 mi North 9.2 mph - N/A   Overcast
1:35 PM 53.6 °F 53.6 °F 100% 29.78 in 2.5 mi NW 9.2 mph - N/A   Overcast
1:55 PM 53.6 °F 53.6 °F 100% 29.79 in 2.5 mi NNW 9.2 mph - N/A   Overcast
2:15 PM 53.6 °F 53.6 °F 100% 29.79 in 1.8 mi North 12.7 mph 17.3 mph N/A   Overcast
2:35 PM 53.6 °F 53.6 °F 100% 29.79 in 1.8 mi NNW 6.9 mph - N/A Rain Light Rain
2:55 PM 55.4 °F 55.4 °F 100% 29.79 in 2.0 mi NNW 9.2 mph 17.3 mph N/A Rain Light Rain
3:15 PM 55.4 °F 55.4 °F 100% 29.80 in 3.0 mi NNW 8.1 mph 17.3 mph N/A   Overcast
3:35 PM 55.4 °F 55.4 °F 100% 29.81 in 2.0 mi NNW 9.2 mph - N/A   Drizzle
3:55 PM 55.4 °F 55.4 °F 100% 29.82 in 3.0 mi NNW 10.4 mph 19.6 mph N/A Rain Light Rain
4:15 PM 53.6 °F 53.6 °F 100% 29.82 in 10.0 mi North 15.0 mph 24.2 mph N/A   Overcast
4:35 PM 55.4 °F 55.4 °F 100% 29.84 in 2.0 mi North 11.5 mph - N/A Rain Light Rain
4:55 PM 55.4 °F 55.4 °F 100% 29.85 in 2.0 mi NNW 9.2 mph 18.4 mph N/A   Overcast
5:15 PM 55.4 °F 53.6 °F 94% 29.85 in 2.5 mi NNW 5.8 mph - N/A Rain Light Rain
5:35 PM 55.4 °F 53.6 °F 94% 29.86 in 7.0 mi North 10.4 mph - N/A   Overcast
5:55 PM 55.4 °F 53.6 °F 94% 29.87 in 10.0 mi North 11.5 mph - N/A   Overcast
6:15 PM 55.4 °F 53.6 °F 94% 29.87 in 10.0 mi NNW 10.4 mph 17.3 mph N/A   Overcast
6:35 PM 55.4 °F 53.6 °F 94% 29.88 in 10.0 mi NNW 6.9 mph - N/A   Overcast
6:55 PM 55.4 °F 53.6 °F 94% 29.89 in 10.0 mi North 9.2 mph - N/A   Overcast
7:15 PM 55.4 °F 53.6 °F 94% 29.90 in 10.0 mi NNW 10.4 mph - N/A   Overcast
7:35 PM 55.4 °F 53.6 °F 94% 29.91 in 10.0 mi North 9.2 mph 16.1 mph N/A   Overcast
7:55 PM 55.4 °F 53.6 °F 94% 29.93 in 10.0 mi North 8.1 mph 17.3 mph N/A   Overcast
8:15 PM 57.2 °F 53.6 °F 88% 29.94 in 10.0 mi North 5.8 mph - N/A   Overcast
8:35 PM 57.2 °F 53.6 °F 88% 29.95 in 10.0 mi NNW 3.5 mph - N/A   Overcast
8:55 PM 57.2 °F 53.6 °F 88% 29.96 in 10.0 mi North 3.5 mph - N/A   Overcast
9:15 PM 57.2 °F 55.4 °F 94% 29.96 in 10.0 mi North 3.5 mph - N/A   Overcast
9:35 PM 57.2 °F 53.6 °F 88% 29.97 in 10.0 mi Calm Calm - N/A   Overcast
9:55 PM 55.4 °F 53.6 °F 94% 29.98 in 10.0 mi Calm Calm - N/A   Mostly Cloudy
10:15 PM 53.6 °F 53.6 °F 100% 29.98 in 10.0 mi Calm Calm - N/A   Scattered Clouds
10:35 PM 53.6 °F 53.6 °F 100% 29.99 in 10.0 mi Calm Calm - N/A   Mostly Cloudy
10:55 PM 53.6 °F 53.6 °F 100% 29.99 in 10.0 mi Calm Calm - N/A   Overcast
11:15 PM 53.6 °F 53.6 °F 100% 30.00 in 10.0 mi Calm Calm - N/A   Overcast
11:35 PM 51.8 °F 51.8 °F 100% 30.00 in 5.0 mi Calm Calm - N/A   Overcast
11:55 PM 53.6 °F 53.6 °F 100% 30.00 in 10.0 mi North 3.5 mph - N/A   Overcast